User: anonymous   Login
Location: Fort Wayne
(41.1310°N, 85.1290°W)
Time: 07:54:10
(UTC-04:00)
Language:

Cosmos 2056 Rocket - Orbit

View from above orbital plane
View from above orbital plane
View from above satellite
View from above satellite

Ground track
Ground track

The orbit data is extracted from the following two-line orbital elements,

1 20433U 90004B   16207.17273679  .00000059  00000-0  28844-4 0  9997
2 20433  74.0344 236.4684 0039731  85.1793 334.1612 14.35940945388266
Epoch (UTC): 25 July 2016 04:08:44
Eccentricity: 0.0039731
inclination: 74.0344°
perigee height: 743 km
apogee height: 800 km
right ascension of ascending node: 236.4684°
argument of perigee: 85.1793°
revolutions per day: 14.35940945
mean anomaly at epoch: 334.1612°
orbit number at epoch: 38826

The dashed part of the orbit path shows where the satellite is in the earth's shadow,  

DLR